SKYSAT-C3

Last updated on Mon Sep 07 2026 00:02:46 GMT+0000 (Coordinated Universal Time)

1 41774U 16058E 26249.58961683 .00016119 00000+0 23435-3 0 9999 2 41774 96.8971 277.4696 0002476 78.3345 281.8189 15.55839990558756
UTC large
Height (km)
Speed (km/s)
/
Latitude / Longitude
Inclination (degrees)
Orbital Period (minutes)
Azimuth
Elevation
Range (km)
Doppler Factor

Next 0 passes for location: London (51.5072 / 0.1276)

No passes found over London.
SKYSAT-C3